Weather History for Ottumwa, IA

Change the Weather History Date:

Tuesday, November 13, 2012

  Actual Average Record
Temperature  
Mean Temperature 33 °F 41 °F  
Max Temperature 48 °F 50 °F 78 °F (1999)
Min Temperature 18 °F 31 °F 3 °F (1940)
Degree Days  
Heating Degree Days 32 24  
Month to date heating degree days 281 277  
Since 1 July heating degree days 864 801  
Cooling Degree Days 0 0  
Month to date cooling degree days 2 0  
Year to date cooling degree days 1237 938  
Moisture  
Dew Point 22 °F    
Average Humidity 63    
Maximum Humidity 84    
Minimum Humidity 41    
Precipitation  
Precipitation 0.00 in 0.09 in 0.95 in (1929)
Month to date precipitation 1.49 1.13  
Year to date precipitation 25.24 34.45  
Sea Level Pressure  
Sea Level Pressure 30.44 in    
Wind  
Wind Speed 7 mph (South)    
Max Wind Speed 14 mph    
Max Gust Speed 16 mph    
Visibility 10 miles    
Events      
T = Trace of Precipitation, MM = Missing Value Source: NWS Daily Summary

Daily Weather History Graph

Daily Weather History Graph

Search for Another Location

Airport:

Trip Planner

Search our weather history database for the weather conditions in past years. The results will help you decide how hot, cold, wet, or windy it might be!

Date:

Astronomy

Nov. 13, 2012 Rise Set
Actual Time 6:55 AM CST 4:52 PM CST
Civil Twilight 6:26 AM CST 5:21 PM CST
Nautical Twilight 5:53 AM CST 5:54 PM CST
Astronomical Twilight 5:20 AM CST 6:27 PM CST
Moon 6:34 AM CST (11/13) 4:45 PM CST (11/13)
Length of Visible Light 10h 55m
Length of Day
9h 56m
Waning Crescent, 0% of the Moon is Illuminated
Nov 13
Waning Crescent
Nov 13
New
Nov 20
First Quarter
Nov 28
Full
Dec 6
Last Quarter

Hourly Weather History & Observations

Time (CST) Temp. Windchill Dew Point Humidity Pressure Visibility Wind Dir Wind Speed Gust Speed Precip Events Conditions
12:53 AM 25.0 °F 19.3 °F 18.0 °F 75% 30.43 in 10.0 mi West 4.6 mph - N/A   Clear
1:53 AM 24.1 °F 18.2 °F 17.1 °F 75% 30.44 in 10.0 mi West 4.6 mph - N/A   Clear
2:53 AM 19.9 °F 12.1 °F 16.0 °F 85% 30.44 in 10.0 mi SW 5.8 mph - N/A   Clear
3:53 AM 21.9 °F 17.2 °F 18.0 °F 85% 30.45 in 10.0 mi SSW 3.5 mph - N/A   Clear
4:53 AM 21.0 °F 14.6 °F 17.1 °F 85% 30.47 in 10.0 mi SSW 4.6 mph - N/A   Clear
5:53 AM 21.9 °F - 17.1 °F 82% 30.48 in 10.0 mi Calm Calm - N/A   Clear
6:53 AM 19.0 °F 12.3 °F 15.1 °F 85% 30.49 in 10.0 mi South 4.6 mph - N/A   Clear
7:53 AM 25.0 °F 20.7 °F 19.9 °F 81% 30.50 in 10.0 mi SSE 3.5 mph - N/A   Clear
8:53 AM 30.9 °F 25.2 °F 23.0 °F 72% 30.49 in 10.0 mi South 5.8 mph - N/A   Clear
9:53 AM 36.0 °F 29.0 °F 21.0 °F 55% 30.49 in 10.0 mi South 9.2 mph - N/A   Clear
10:53 AM 39.0 °F 32.8 °F 21.9 °F 50% 30.48 in 10.0 mi South 9.2 mph - N/A   Clear
11:53 AM 43.0 °F 38.2 °F 21.0 °F 42% 30.45 in 10.0 mi South 8.1 mph - N/A   Clear
12:53 PM 45.0 °F 39.7 °F 23.0 °F 42% 30.43 in 10.0 mi South 10.4 mph - N/A   Clear
1:53 PM 46.9 °F - 24.1 °F 41% 30.41 in 10.0 mi SSE 11.5 mph - N/A   Clear
2:53 PM 46.9 °F - 24.1 °F 41% 30.39 in 10.0 mi South 10.4 mph - N/A   Clear
3:53 PM 46.0 °F 41.4 °F 25.0 °F 44% 30.39 in 10.0 mi SSE 9.2 mph - N/A   Clear
4:53 PM 37.9 °F 33.5 °F 26.1 °F 62% 30.39 in 10.0 mi SE 5.8 mph - N/A   Clear
5:53 PM 37.0 °F 31.6 °F 26.1 °F 65% 30.40 in 10.0 mi SE 6.9 mph - N/A   Clear
6:53 PM 35.1 °F 29.3 °F 26.1 °F 70% 30.41 in 10.0 mi SE 6.9 mph - N/A   Clear
7:53 PM 37.9 °F 32.1 °F 27.0 °F 65% 30.41 in 10.0 mi SSE 8.1 mph - N/A   Clear
8:53 PM 39.9 °F 32.9 °F 27.0 °F 60% 30.41 in 10.0 mi SSE 11.5 mph - N/A   Clear
9:53 PM 39.0 °F 32.8 °F 27.0 °F 62% 30.41 in 10.0 mi SSE 9.2 mph - N/A   Clear
10:53 PM 39.0 °F 32.3 °F 26.1 °F 60% 30.41 in 10.0 mi SSE 10.4 mph - N/A   Clear
11:53 PM 37.9 °F 31.5 °F 26.1 °F 62% 30.41 in 10.0 mi South 9.2 mph - N/A   Clear